Simultaneous Nadir Overpasses (SNOs) Predictions

Prediction of SNOs between METOP-B and NPP Satellite Orbit:

Table of predicted SNOs for the next 14.0 days since TLE Epoch: 10/13/2016
Index Date (METOP-B) Time (METOP-B) Lat,Lon (METOP-B) SZA (METOP-B ) Date (NPP) Time (NPP) Lat,Lon (NPP) SZA (NPP ) Distance(km) Time Diff (sec)
1 10/13/2016 05:21:03 -69.14, 144.71 68.65 10/13/2016 05:21:02 -69.14, 144.71 68.65 0.17 1
2 10/13/2016 06:06:23 81.34, 19.94 94.21 10/13/2016 06:06:22 81.34, 19.94 94.21 0.07 1
3 10/13/2016 06:57:08 -81.34,-172.83 85.78 10/13/2016 06:57:07 -81.34,-172.82 85.78 0.07 1
4 10/13/2016 07:47:53 81.34, -5.47 94.24 10/13/2016 07:47:52 81.34, -5.46 94.24 0.07 1
5 10/13/2016 08:38:38 -81.34, 161.77 85.75 10/13/2016 08:38:37 -81.34, 161.77 85.75 0.07 1
6 10/13/2016 09:29:23 81.34, -30.87 94.26 10/13/2016 09:29:22 81.34, -30.87 94.26 0.07 1
7 10/13/2016 10:20:08 -81.34, 136.36 85.72 10/13/2016 10:20:07 -81.34, 136.37 85.72 0.07 1
8 10/13/2016 11:10:53 81.34, -56.28 94.29 10/13/2016 11:10:52 81.34, -56.28 94.29 0.07 1
9 10/13/2016 12:01:38 -81.34, 110.96 85.69 10/13/2016 12:01:37 -81.34, 110.96 85.69 0.07 1
10 10/13/2016 12:52:23 81.34, -81.69 94.32 10/13/2016 12:52:22 81.34, -81.68 94.32 0.07 1
11 10/13/2016 13:43:08 -81.34, 85.55 85.66 10/13/2016 13:43:07 -81.34, 85.55 85.66 0.07 1
12 10/13/2016 14:33:53 81.34,-107.09 94.35 10/13/2016 14:33:52 81.34,-107.09 94.35 0.07 1
13 10/13/2016 15:24:38 -81.34, 60.14 85.63 10/13/2016 15:24:37 -81.34, 60.15 85.63 0.07 1
14 10/13/2016 16:15:23 81.34,-132.50 94.38 10/13/2016 16:15:22 81.34,-132.50 94.38 0.07 1
15 10/13/2016 17:06:08 -81.34, 34.74 85.60 10/13/2016 17:06:07 -81.34, 34.74 85.60 0.07 1
16 10/13/2016 17:56:53 81.34,-157.91 94.41 10/13/2016 17:56:52 81.34,-157.90 94.41 0.07 1
17 10/13/2016 18:47:38 -81.34, 9.33 85.57 10/13/2016 18:47:37 -81.34, 9.34 85.57 0.07 1
18 10/13/2016 19:38:23 81.34, 176.68 94.44 10/13/2016 19:38:22 81.34, 176.69 94.44 0.07 1
19 10/13/2016 20:29:08 -81.34, -16.07 85.54 10/13/2016 20:29:07 -81.34, -16.07 85.54 0.07 1
20 10/13/2016 21:19:53 81.34, 151.28 94.47 10/13/2016 21:19:52 <
